Location: Ash Swamp
(41.5170°N, 74.6157°W)
Time: 02:57:24
(UTC+00:00)

Cosmos 494 Rocket - Visible Passes

Search period start: 23 October 2020 00:00
Search period end: 02 November 2020 00:00
Orbit: 741 x 771 km, 74.1° (Epoch: 22 October)

Date Brightness Start Highest point End Pass type
(mag) Time Alt. Az. Time Alt. Az. Time Alt. Az.
23 Oct 6.1 07:59:44 23° E 07:59:44 23° E 08:03:28 10° NE visible
23 Oct 4.3 09:39:50 38° W 09:40:51 43° WNW 09:45:53 10° N visible
24 Oct 7.0 07:20:57 11° ENE 07:20:57 11° ENE 07:21:17 10° ENE visible
24 Oct 4.1 09:01:01 64° N 09:01:01 64° N 09:05:33 10° NNE visible
24 Oct 5.8 10:41:21 10° WNW 10:43:00 11° NW 10:44:39 10° NNW visible
25 Oct 5.5 08:22:03 32° NE 08:22:03 32° NE 08:24:57 10° NNE visible
25 Oct 5.4 10:02:07 19° NW 10:02:07 19° NW 10:05:46 10° N visible
26 Oct 6.6 07:42:57 15° NE 07:42:57 15° NE 07:44:02 10° NE visible
26 Oct 5.3 09:23:01 26° NNW 09:23:01 26° NNW 09:25:55 10° N visible
27 Oct 5.8 08:43:48 22° N 08:43:48 22° N 08:45:42 10° NNE visible
28 Oct 6.5 08:04:30 14° NNE 08:04:30 14° NNE 08:05:14 10° NNE visible
28 Oct 6.1 09:44:33 12° NNW 09:44:33 12° NNW 09:45:26 10° NNW visible
29 Oct 6.2 09:05:11 13° N 09:05:11 13° N 09:05:52 10° N visible
30 Oct 6.6 08:25:45 10° N 08:25:45 10° N 08:25:48 10° N visible
